sat.trackr.live / text

‹ back to catalog

JACKAL-004

NORAD 69012 · 2026-100AJ

PAYLOAD ACTIVE UNKNOWN

§ Identity

Operator
Country
US
Launch date
2026-05-03
Launch site
AFWTR
Launch vehicle
Mass (kg)
RCS (m²)

External: N2YO · Heavens-Above · Gunter

§ Orbital elements

Epoch: 2026-09-20T03:24:04.791168Z

Period
94.65 min
Inclination
97.4524°
Eccentricity
0.0012266
Mean motion
15.21390700 rev/d
Perigee alt
493.2 km
Apogee alt
510.1 km
Semi-major
6,879.8 km
B*
1.0942e-4
RAAN
159.7829°
Arg perigee
189.6682°
Mean anomaly
170.4320°
Rev number
2,124

§ Raw data

JACKAL-0041 69012U 26100AJ  26263.14172212  .00002388  00000+0  10942-3 0  99952 69012  97.4524 159.7829 0012266 189.6682 170.4320 15.21390700 21243

JSON: /api/v1/satellites/69012 · /tle

For live sub-satellite position, see the globe view (requires WebGL).

§ Visibility from observer

Set your observer location to see the next 7 days of passes ≥ 10°. The values pass through the URL so the page stays shareable.

No JS? Fill the form by hand. The geolocation button needs JavaScript.